Defiance, OH

6:20 AM EST on November 21, 2017 (GMT -0500)
Defiance Memorial

Weather History for KDFI - February, 2015

Change the Weather History Date:

Friday, February 27, 2015

  Actual Average Record
Temperature  
Mean Temperature 5 °F -  
Max Temperature 18 °F 39 °F 63 °F (1976)
Min Temperature -8 °F 20 °F -15 °F (1963)
Degree Days  
Heating Degree Days 60    
Moisture  
Dew Point -5 °F    
Average Humidity 65    
Maximum Humidity 83    
Minimum Humidity 41    
Precipitation  
Precipitation 0.00 in - - ()
Sea Level Pressure  
Sea Level Pressure 30.61 in    
Wind  
Wind Speed 2 mph (WSW)    
Max Wind Speed 8 mph    
Max Gust Speed -    
Visibility 10 miles    
Events      
Averages and records for this station are not official NWS values.
T = Trace of Precipitation, MM = Missing Value Source: NWS Daily Summary

Daily Weather History Graph

Daily Weather History Graph

Search for Another Location

Airport or City:

Trip Planner

Search our weather history database for the weather conditions in past years. The results will help you decide how hot, cold, wet, or windy it might be!

Date:

Astronomy

Feb. 27, 2015 Rise Set
Actual Time 7:15 AM EST 6:25 PM EST
Civil Twilight 6:47 AM EST 6:53 PM EST
Nautical Twilight 6:15 AM EST 7:25 PM EST
Astronomical Twilight 5:43 AM EST 7:57 PM EST
Moon 1:13 PM EST (2/27) 3:07 AM EST (2/27)
Length of Visible Light 12h 05m
Length of Day
11h 10m
Waxing Gibbous, 70% of the Moon is Illuminated
Feb 27
Waxing Gibbous
Mar 5
Full
Mar 13
Last Quarter
Mar 20
New
Mar 27
First Quarter

Hourly Weather History & Observations

Time (EST) Temp. Windchill Dew Point Humidity Pressure Visibility Wind Dir Wind Speed Gust Speed Precip Events Conditions
12:53 AM 3.0 °F - -4.0 °F 73% 30.42 in 10.0 mi Calm Calm - N/A   Clear
1:53 AM 1.0 °F - -7.1 °F 69% 30.43 in 10.0 mi Calm Calm - N/A   Clear
2:53 AM -2.9 °F - -9.0 °F 75% 30.45 in 10.0 mi Calm Calm - N/A   Clear
3:53 AM -4.0 °F - -9.0 °F 79% 30.47 in 10.0 mi Calm Calm - N/A   Clear
4:53 AM -6.0 °F - -11.0 °F 79% 30.49 in 10.0 mi Calm Calm - N/A   Clear
5:53 AM -7.1 °F - -11.9 °F 79% 30.53 in 8.0 mi Calm Calm - N/A   Clear
6:53 AM -8.0 °F - -13.0 °F 79% 30.54 in 9.0 mi Calm Calm - N/A   Clear
7:53 AM -8.0 °F - -13.0 °F 79% 30.56 in 8.0 mi Calm Calm - N/A   Clear
8:53 AM -0.9 °F - -5.1 °F 83% 30.59 in 6.0 mi Calm Calm - N/A   Clear
9:53 AM 5.0 °F -2.1 °F -2.9 °F 70% 30.61 in 10.0 mi WNW 3.5 mph - N/A   Clear
10:53 AM 7.0 °F -1.7 °F -2.9 °F 64% 30.62 in 10.0 mi NW 4.6 mph - N/A   Clear
11:53 AM 9.0 °F -0.9 °F -2.9 °F 59% 30.65 in 10.0 mi SW 5.8 mph - 0.00 in   Clear
12:53 PM 12.9 °F 2.6 °F -2.9 °F 49% 30.65 in 10.0 mi WNW 6.9 mph - N/A   Clear
1:53 PM 15.1 °F 5.2 °F -2.9 °F 45% 30.64 in 10.0 mi SW 6.9 mph - N/A   Clear
2:53 PM 17.1 °F 6.6 °F -2.0 °F 43% 30.65 in 10.0 mi SW 8.1 mph - N/A   Clear
3:53 PM 18.0 °F 9.8 °F -0.9 °F 44% 30.65 in 10.0 mi SW 5.8 mph - N/A   Clear
4:53 PM 18.0 °F 9.8 °F -2.0 °F 41% 30.65 in 10.0 mi SW 5.8 mph - N/A   Clear
5:53 PM 15.1 °F 5.2 °F -0.9 °F 49% 30.66 in 10.0 mi SSW 6.9 mph - N/A   Clear
6:53 PM 12.9 °F - -0.9 °F 54% 30.66 in 10.0 mi Calm Calm - N/A   Clear
7:53 PM 7.0 °F - -2.9 °F 64% 30.69 in 10.0 mi Calm Calm - N/A   Clear
8:53 PM 5.0 °F -2.1 °F -4.0 °F 66% 30.71 in 10.0 mi South 3.5 mph - N/A   Clear
9:53 PM 3.0 °F -4.4 °F -5.1 °F 69% 30.74 in 10.0 mi SSW 3.5 mph - N/A   Clear
10:53 PM 1.9 °F - -6.0 °F 69% 30.74 in 10.0 mi Calm Calm - N/A   Clear
11:53 PM -0.0 °F - -6.0 °F 76% 30.73 in 10.0 mi Calm Calm - N/A   Clear